When you browse on this site, cookies collect data to enhance your experience and personalize the content and advertising you see.
Visit our Privacy Policy to learn more. By continuing to use the site, you agree to this use of cookies and data.
  • In Switzerland
  • List of Countries
  • For 7 days
  • Water Temperature
  • Satellite Maps
  • Weather Map
  • Weather Widgets
  • user-avatar
    Login

    Hourly Weather Ghazni

    Today, 25 June, Tuesday

    Time Temperature Precipitation Wind Pressure Humidity
    00:00 +21°C° 0.1 mm 1 mps 588 mmHg 55%
    01:00 +20°C° 0.1 mm 1 mps 588 mmHg 57%
    02:00 +20°C° 0.1 mm 1 mps 588 mmHg 58%
    03:00 +19°C° 0 mm 1 mps 588 mmHg 57%
    04:00 +19°C° 0 mm 1 mps 587 mmHg 57%
    05:00 +18°C° 0 mm 2 mps 587 mmHg 53%
    06:00 +19°C° 0 mm 2 mps 588 mmHg 43%
    07:00 +20°C° 0 mm 2 mps 589 mmHg 34%
    08:00 +21°C° 0 mm 3 mps 590 mmHg 25%
    09:00 +24°C° 0 mm 2 mps 590 mmHg 21%
    10:00 +25°C° 0 mm 2 mps 590 mmHg 18%
    11:00 +26°C° 0 mm 1 mps 590 mmHg 15%
    12:00 +27°C° 0 mm 2 mps 590 mmHg 14%
    13:00 +28°C° 0 mm 2 mps 590 mmHg 12%
    14:00 +29°C° 0 mm 2 mps 591 mmHg 10%
    15:00 +30°C° 0 mm 2 mps 590 mmHg 10%
    16:00 +30°C° 0 mm 2 mps 590 mmHg 10%
    17:00 +30°C° 0 mm 2 mps 590 mmHg 10%
    18:00 +29°C° 0 mm 2 mps 590 mmHg 10%
    19:00 +28°C° 0 mm 2 mps 590 mmHg 11%
    20:00 +27°C° 0 mm 2 mps 590 mmHg 12%
    21:00 +26°C° 0 mm 3 mps 589 mmHg 13%
    22:00 +24°C° 0 mm 3 mps 589 mmHg 14%
    23:00 +22°C° 0 mm 3 mps 588 mmHg 16%

    Tomorrow, 26 June, Wednesday

    Time Temperature Precipitation Wind Pressure Humidity
    00:00 +21°C° 0 mm 3 mps 588 mmHg 18%
    01:00 +20°C° 0 mm 3 mps 587 mmHg 21%
    02:00 +19°C° 0 mm 3 mps 587 mmHg 23%
    03:00 +19°C° 0 mm 3 mps 587 mmHg 23%
    04:00 +18°C° 0 mm 3 mps 586 mmHg 23%
    05:00 +18°C° 0 mm 3 mps 586 mmHg 24%
    06:00 +19°C° 0 mm 2 mps 587 mmHg 22%
    07:00 +20°C° 0 mm 2 mps 588 mmHg 19%
    08:00 +23°C° 0 mm 2 mps 588 mmHg 17%
    09:00 +24°C° 0 mm 2 mps 589 mmHg 15%
    10:00 +26°C° 0 mm 2 mps 589 mmHg 13%
    11:00 +27°C° 0 mm 1 mps 589 mmHg 11%
    12:00 +28°C° 0 mm 2 mps 589 mmHg 10%
    13:00 +29°C° 0 mm 3 mps 589 mmHg 10%
    14:00 +30°C° 0 mm 4 mps 589 mmHg 9%
    15:00 +32°C° 0 mm 4 mps 589 mmHg 9%
    16:00 +32°C° 0 mm 5 mps 589 mmHg 8%
    17:00 +32°C° 0 mm 5 mps 589 mmHg 8%
    18:00 +30°C° 0 mm 5 mps 588 mmHg 9%
    19:00 +29°C° 0 mm 5 mps 588 mmHg 10%
    20:00 +28°C° 0 mm 5 mps 588 mmHg 11%
    21:00 +27°C° 0 mm 4 mps 588 mmHg 12%
    22:00 +26°C° 0 mm 4 mps 587 mmHg 13%
    23:00 +25°C° 0 mm 3 mps 587 mmHg 14%

    Day after tomorrow, 27 June, Thursday

    Time Temperature Precipitation Wind Pressure Humidity
    00:00 +24°C° 0 mm 3 mps 586 mmHg 16%
    01:00 +22°C° 0 mm 3 mps 586 mmHg 19%
    02:00 +21°C° 0 mm 3 mps 585 mmHg 21%
    03:00 +20°C° 0 mm 3 mps 585 mmHg 22%
    04:00 +20°C° 0 mm 3 mps 585 mmHg 23%
    05:00 +19°C° 0 mm 3 mps 584 mmHg 24%
    06:00 +20°C° 0 mm 3 mps 585 mmHg 22%
    07:00 +22°C° 0 mm 3 mps 586 mmHg 21%
    08:00 +24°C° 0 mm 3 mps 586 mmHg 19%
    09:00 +25°C° 0 mm 3 mps 587 mmHg 17%
    10:00 +26°C° 0 mm 2 mps 587 mmHg 16%
    11:00 +27°C° 0 mm 2 mps 587 mmHg 14%
    12:00 +28°C° 0 mm 2 mps 587 mmHg 13%
    13:00 +29°C° 0 mm 3 mps 587 mmHg 12%
    14:00 +30°C° 0 mm 3 mps 587 mmHg 10%
    15:00 +30°C° 0 mm 3 mps 587 mmHg 10%
    16:00 +31°C° 0 mm 3 mps 586 mmHg 10%
    17:00 +31°C° 0 mm 3 mps 586 mmHg 9%
    18:00 +30°C° 0 mm 3 mps 586 mmHg 10%
    19:00 +29°C° 0 mm 3 mps 586 mmHg 11%
    20:00 +28°C° 0 mm 3 mps 586 mmHg 11%
    21:00 +27°C° 0 mm 4 mps 586 mmHg 13%
    22:00 +25°C° 0 mm 4 mps 585 mmHg 15%
    23:00 +23°C° 0 mm 5 mps 585 mmHg 17%

    28 June, Friday

    Time Temperature Precipitation Wind Pressure Humidity
    00:00 +22°C° 0 mm 4 mps 585 mmHg 17%
    01:00 +22°C° 0 mm 4 mps 584 mmHg 17%
    02:00 +21°C° 0 mm 3 mps 584 mmHg 17%
    03:00 +20°C° 0 mm 3 mps 584 mmHg 17%
    04:00 +20°C° 0 mm 3 mps 584 mmHg 18%
    05:00 +19°C° 0 mm 3 mps 583 mmHg 19%
    06:00 +20°C° 0 mm 3 mps 584 mmHg 18%
    07:00 +22°C° 0 mm 3 mps 585 mmHg 17%
    08:00 +24°C° 0 mm 3 mps 586 mmHg 15%
    09:00 +25°C° 0 mm 3 mps 586 mmHg 14%
    10:00 +26°C° 0 mm 3 mps 587 mmHg 14%
    11:00 +28°C° 0 mm 3 mps 587 mmHg 13%
    12:00 +29°C° 0 mm 3 mps 587 mmHg 12%
    13:00 +29°C° 0 mm 2 mps 587 mmHg 11%
    14:00 +30°C° 0 mm 2 mps 587 mmHg 10%
    15:00 +30°C° 0 mm 3 mps 587 mmHg 10%
    16:00 +31°C° 0 mm 3 mps 586 mmHg 10%
    17:00 +32°C° 0 mm 4 mps 586 mmHg 9%
    18:00 +30°C° 0 mm 3 mps 586 mmHg 10%
    19:00 +29°C° 0 mm 3 mps 586 mmHg 11%
    20:00 +28°C° 0 mm 2 mps 586 mmHg 12%
    21:00 +27°C° 0 mm 3 mps 586 mmHg 15%
    22:00 +26°C° 0 mm 4 mps 586 mmHg 18%
    23:00 +25°C° 0 mm 4 mps 586 mmHg 21%

    29 June, Saturday

    Time Temperature Precipitation Wind Pressure Humidity
    00:00 +23°C° 0 mm 4 mps 585 mmHg 20%
    01:00 +24°C° 0 mm 3 mps 585 mmHg 19%
    02:00 +23°C° 0 mm 2 mps 585 mmHg 18%
    03:00 +21°C° 0 mm 2 mps 584 mmHg 19%
    04:00 +21°C° 0 mm 2 mps 584 mmHg 20%
    05:00 +20°C° 0 mm 2 mps 584 mmHg 20%
    06:00 +21°C° 0 mm 2 mps 585 mmHg 19%
    07:00 +24°C° 0 mm 2 mps 586 mmHg 18%
    08:00 +25°C° 0 mm 2 mps 586 mmHg 17%
    09:00 +26°C° 0 mm 2 mps 587 mmHg 17%
    10:00 +27°C° 0 mm 1 mps 587 mmHg 17%
    11:00 +29°C° 0 mm 1 mps 587 mmHg 18%
    12:00 +30°C° 0 mm 2 mps 587 mmHg 15%
    13:00 +31°C° 0 mm 3 mps 587 mmHg 13%
    14:00 +33°C° 0 mm 5 mps 587 mmHg 11%
    15:00 +33°C° 0 mm 5 mps 587 mmHg 10%
    16:00 +34°C° 0 mm 5 mps 587 mmHg 9%
    17:00 +34°C° 0 mm 6 mps 587 mmHg 8%
    18:00 +33°C° 0 mm 6 mps 587 mmHg 9%
    19:00 +32°C° 0 mm 6 mps 587 mmHg 10%
    20:00 +30°C° 0 mm 5 mps 586 mmHg 11%
    21:00 +29°C° 0 mm 5 mps 586 mmHg 12%
    22:00 +27°C° 0 mm 4 mps 586 mmHg 14%
    23:00 +26°C° 0 mm 3 mps 586 mmHg 16%

    30 June, Sunday

    Time Temperature Precipitation Wind Pressure Humidity
    00:00 +25°C° 0 mm 3 mps 585 mmHg 20%
    01:00 +24°C° 0 mm 3 mps 585 mmHg 24%
    02:00 +24°C° 0 mm 3 mps 585 mmHg 28%
    03:00 +22°C° 0 mm 3 mps 584 mmHg 29%
    04:00 +23°C° 0 mm 2 mps 584 mmHg 30%
    05:00 +21°C° 0 mm 2 mps 584 mmHg 30%
    06:00 +23°C° 0 mm 2 mps 585 mmHg 28%
    07:00 +25°C° 0 mm 2 mps 586 mmHg 26%
    08:00 +26°C° 0 mm 2 mps 586 mmHg 24%
    09:00 +27°C° 0 mm 2 mps 587 mmHg 22%
    10:00 +29°C° 0 mm 1 mps 587 mmHg 20%
    11:00 +30°C° 0 mm 1 mps 587 mmHg 18%
    12:00 +31°C° 0 mm 1 mps 587 mmHg 16%
    13:00 +32°C° 0 mm 2 mps 587 mmHg 14%
    14:00 +34°C° 0 mm 3 mps 587 mmHg 12%
    15:00 +34°C° 0 mm 3 mps 587 mmHg 12%
    16:00 +34°C° 0 mm 3 mps 587 mmHg 11%
    17:00 +35°C° 0 mm 3 mps 587 mmHg 11%
    18:00 +34°C° 0 mm 3 mps 587 mmHg 11%
    19:00 +33°C° 0 mm 3 mps 586 mmHg 12%
    20:00 +31°C° 0 mm 2 mps 586 mmHg 13%
    21:00 +29°C° 0 mm 2 mps 586 mmHg 14%
    22:00 +28°C° 0 mm 2 mps 586 mmHg 15%
    23:00 +27°C° 0 mm 2 mps 586 mmHg 16%
    Show more